Location: Montreal
(45.5000°N, 73.5833°W)
Time: 00:22:37
(UTC-04:00)

Vanguard 3 - All Passes

Search period start: 23 July 2018 00:00
Search period end: 02 August 2018 00:00
Orbit: 508 x 3264 km, 33.3° (Epoch: 22 July)

Date Brightness Start Highest point End Pass type
(mag) Time Alt. Az. Time Alt. Az. Time Alt. Az.
23 Jul - 15:22:15 10° SSW 15:36:03 26° SSE 15:46:44 10° ESE daylight
23 Jul - 17:34:31 10° SW 17:49:54 41° SSE 17:59:44 10° ESE daylight
23 Jul - 19:50:14 10° WSW 20:02:56 42° S 20:10:27 10° ESE daylight
23 Jul - 22:06:57 10° WSW 22:14:12 23° SSW 22:19:09 10° SSE visible
24 Jul - 14:09:28 10° S 14:20:44 19° SE 14:30:29 10° ESE daylight
24 Jul - 16:18:40 10° SW 16:34:38 37° SSE 16:45:50 10° E daylight
24 Jul - 18:33:20 10° WSW 18:48:23 46° S 18:57:30 10° ESE daylight
24 Jul - 20:49:53 10° W 21:00:43 35° SSW 21:07:21 10° SE visible
24 Jul - 23:08:47 10° WSW 23:10:59 11° SW 23:12:57 10° SSW visible
25 Jul - 13:01:30 10° SSE 13:05:35 11° SE 13:09:32 10° ESE daylight
25 Jul - 15:03:51 10° SSW 15:19:08 30° SSE 15:31:09 10° E daylight
25 Jul - 17:16:42 10° SW 17:33:17 45° S 17:44:04 10° ESE daylight
25 Jul - 19:32:47 10° WSW 19:46:37 44° SSW 19:54:51 10° ESE daylight
25 Jul - 21:50:01 10° W 21:57:58 23° SW 22:03:24 10° SSE visible
26 Jul - 13:50:35 10° S 14:03:41 22° SE 14:15:10 10° E daylight
26 Jul - 16:00:43 10° SW 16:17:47 41° SSE 16:30:05 10° E daylight
26 Jul - 18:15:43 10° WSW 18:31:51 48° S 18:41:48 10° ESE daylight
26 Jul - 20:32:37 10° W 20:44:24 35° SSW 20:51:40 10° SE daylight
26 Jul - 22:52:30 10° WSW 22:54:41 11° SW 22:56:38 10° SSW visible
27 Jul - 12:40:17 10° SSE 12:48:29 14° SE 12:56:22 10° ESE daylight
27 Jul - 14:45:45 10° SSW 15:02:06 34° SSE 15:15:20 10° E daylight
27 Jul - 16:59:00 10° WSW 17:16:32 48° S 17:28:16 10° ESE daylight
27 Jul - 19:15:19 10° WSW 19:30:10 45° SSW 19:39:09 10° SE daylight
27 Jul - 21:33:00 10° W 21:41:38 23° SW 21:47:32 10° S visible
28 Jul - 13:32:12 10° S 13:46:31 26° SE 13:59:27 10° E daylight
28 Jul - 15:42:57 10° SW 16:00:49 44° SSE 16:14:10 10° E daylight
28 Jul - 17:58:09 10° WSW 18:15:13 50° S 18:26:02 10° ESE daylight
28 Jul - 20:15:17 10° W 20:27:58 35° SSW 20:35:54 10° SE daylight
28 Jul - 22:36:19 10° WSW 22:38:16 11° SW 22:40:03 10° SW visible
29 Jul - 12:20:56 10° SSE 12:31:16 17° SE 12:41:25 10° ESE daylight
29 Jul - 14:27:55 10° SSW 14:44:57 38° SSE 14:59:20 10° E daylight
29 Jul - 16:41:23 10° WSW 16:59:40 51° S 17:12:23 10° ESE daylight
29 Jul - 18:57:50 10° W 19:13:35 46° SSW 19:23:22 10° SE daylight
29 Jul - 21:15:56 10° W 21:25:09 22° SW 21:31:34 10° S visible
30 Jul - 13:14:12 10° SSW 13:29:14 29° SE 13:43:26 10° E daylight
30 Jul - 15:25:22 10° SW 15:43:44 48° SSE 15:58:07 10° E daylight
30 Jul - 17:40:38 10° WSW 17:58:27 52° S 18:10:10 10° ESE daylight
30 Jul - 19:57:56 10° W 20:11:24 35° SSW 20:20:01 10° SSE daylight
30 Jul - 22:20:32 10° WSW 22:21:44 10° SW 22:22:54 10° SW visible
31 Jul - 12:02:23 10° S 12:13:57 20° SE 12:25:45 10° E daylight
31 Jul - 14:10:20 10° SW 14:27:42 41° SSE 14:43:07 10° E daylight
31 Jul - 16:23:55 10° WSW 16:42:41 53° S 16:56:22 10° ESE daylight
31 Jul - 18:40:22 10° W 18:56:52 46° SSW 19:07:27 10° SE daylight
31 Jul - 20:58:50 10° W 21:08:33 22° SW 21:15:27 10° S visible
01 Aug - 10:56:36 10° SE 10:59:15 10° SE 11:01:57 10° ESE daylight
01 Aug - 12:56:32 10° SSW 13:11:54 32° SE 13:27:09 10° E daylight
01 Aug - 15:07:58 10° SW 15:26:33 50° SSE 15:41:56 10° E daylight
01 Aug - 17:23:11 10° WSW 17:41:33 53° S 17:54:10 10° ESE daylight
01 Aug - 19:40:34 10° W 19:54:41 34° SSW 20:04:01 10° SSE daylight
